Miscellaneous Local Product
Issued by NWS Hastings, NE

Home | Current Version | Previous Version | Graphics & Text | Print | Product List | Glossary On
Versions: 1 2 3 4 5 6 7 8 9 10 11 12 13 14 15 16 17 18 19 20 21 22 23 24 25 26 27 28 29 30 31 32 33 34 35 36 37 38 39 40 41 42 43 44 45 46 47 48 49 50
000
AXUS43 KGID 190102
MISGRI

GID CWA HOURLY WEATHER ROUNDUP
NATIONAL WEATHER SERVICE HASTINGS NE
800 PM CDT MON AUG 18 2014

NOTE: "FAIR" INDICATES FEW OR NO CLOUDS BELOW 12,000 FEET WITH NO
SIGNIFICANT WEATHER AND/OR OBSTRUCTIONS TO VISIBILITY.

...SOUTH CENTRAL NEBRASKA...

CITY           SKY/WX    TMP DP  RH WIND       PRES   REMARKS
GRAND ISLAND   PTCLDY    80  72  76 CALM      29.84S
HASTINGS       PTCLDY    79  68  69 NE5       29.84S
KEARNEY        MOCLDY    79  72  78 N6        29.87R
ORD            MOCLDY    78  70  76 SW5       29.84S
AURORA         PTCLDY    78  73  83 CALM      29.83S
LEXINGTON      CLOUDY    77  73  88 CALM      29.90R
HOLDREGE       MOCLDY    78  71  78 CALM      29.87R
HEBRON         CLEAR     80  69  69 CALM      29.81S

...NEBRASKA PANHANDLE...

CITY           SKY/WX    TMP DP  RH WIND       PRES   REMARKS
CHADRON        PTCLDY    83  55  38 E15       29.90F
ALLIANCE       CLEAR     79  59  50 E6        29.95S
SCOTTSBLUFF    PTCLDY    81  59  47 SE8       29.94S
SIDNEY         CLOUDY    72  53  51 SE9       30.01F

...WESTERN AND NORTH CENTRAL NEBRASKA...

CITY           SKY/WX    TMP DP  RH WIND       PRES   REMARKS
VALENTINE      CLEAR     82  55  39 N9        29.88F
AINSWORTH      PTCLDY    76  60  56 N8        29.88S
ONEILL         CLEAR     78  64  62 NW9       29.84S
BROKEN BOW     CLOUDY    79  71  76 CALM      29.88S
IMPERIAL       TSTM      78  60  53 NE23G30   29.91R
NORTH PLATTE   LGT RAIN  75  66  73 SW5       29.90F
MCCOOK         MOCLDY    82  64  54 NE13      29.88R

...EASTERN NEBRASKA...

CITY           SKY/WX    TMP DP  RH WIND       PRES   REMARKS
NORFOLK        PTCLDY    80  67  64 SW6       29.79F
SO SIOUX CITY  CLEAR     81  72  74 W3        29.75S
TEKAMAH        CLEAR     80  70  71 SW6       29.76S
COLUMBUS       CLEAR     81  68  65 SW6       29.81S
ALBION         CLEAR     80  67  64 CALM      29.82S
OMAHA EPPLEY   PTCLDY    86  64  47 SW5       29.76F
OFFUTT AFB     CLEAR     83  73  71 S5        29.77S
MILLARD        CLEAR     86  67  52 CALM      29.77S
LINCOLN        CLEAR     84  68  58 SW7       29.80S
NEBRASKA CITY  CLEAR     80  71  75 S5        29.79S
BEATRICE       CLEAR     80  72  77 CALM      29.80S
FALLS CITY     CLEAR     81  71  71 SE6       29.78F

...NORTHERN KANSAS...

CITY           SKY/WX    TMP DP  RH WIND       PRES   REMARKS
GOODLAND       MOCLDY    84  52  33 N6        29.90R
HILL CITY      PTCLDY    85  68  56 E7        29.80F
NORTON         CLEAR     86  57  37 NE6       29.83S
PHILLIPSBURG   CLEAR     84  66  54 E7        29.81R
BELOIT         CLEAR     84  70  61 E3        29.77S
HAYS           CLOUDY    90  64  43 SE10      29.79S HX  91
RUSSELL        CLOUDY    88  66  48 SE7       29.77S HX  90
CONCORDIA      CLEAR     82  73  74 E6        29.79S
SALINA         CLEAR     87  69  54 SE6       29.77S HX  91
TOPEKA         CLEAR     86  70  58 E6        29.78S HX  90



USA.gov is the U.S. government's official web portal to all federal, state and local government web resources and services.